Weather History for Palmer, AK

Change the Weather History Date:

Saturday, June 15, 2013

  Actual Average Record
Temperature  
Mean Temperature 60 °F -  
Max Temperature 75 °F 65 °F 86 °F (1969)
Min Temperature 48 °F 45 °F 34 °F (1963)
Degree Days  
Heating Degree Days 4    
Growing Degree Days 10 (Base 50)    
Moisture  
Dew Point 47 °F    
Average Humidity 60    
Maximum Humidity 86    
Minimum Humidity 45    
Precipitation  
Precipitation 0.00 in - - ()
Sea Level Pressure  
Sea Level Pressure 30.27 in    
Wind  
Wind Speed 2 mph (SSW)    
Max Wind Speed 6 mph    
Max Gust Speed -    
Visibility 10 miles    
Events      
Averages and records for this station are not official NWS values.
T = Trace of Precipitation, MM = Missing Value Source: NWS Daily Summary

Daily Weather History Graph

Daily Weather History Graph

Search for Another Location

Airport:

Trip Planner

Search our weather history database for the weather conditions in past years. The results will help you decide how hot, cold, wet, or windy it might be!

Date:

Astronomy

Jun. 15, 2013 Rise Set
Actual Time 4:12 AM AKDT 11:42 PM AKDT
Civil Twilight 2:29 AM AKDT 1:24 AM AKDT
Nautical Twilight Sun does not rise Sun does not rise
Astronomical Twilight Sun does not rise Sun does not rise
Moon 1:04 PM AKDT (6/15) 1:23 AM AKDT (6/15)
Length of Visible Light 22h 55m
Length of Day
19h 29m
Waxing Crescent, 41% of the Moon is Illuminated
Jun 15
Waxing Crescent
Jun 16
First Quarter
Jun 23
Full
Jun 29
Last Quarter
Jul 7
New

Hourly Weather History & Observations

Time (AKDT) Temp. Dew Point Humidity Pressure Visibility Wind Dir Wind Speed Gust Speed Precip Events Conditions
12:53 AM 54.0 °F 43.0 °F 66% 30.27 in 10.0 mi Calm Calm - N/A   Clear
1:53 AM 52.0 °F 46.0 °F 80% 30.29 in 10.0 mi Calm Calm - N/A   Clear
2:53 AM 51.1 °F 45.0 °F 80% 30.30 in 10.0 mi Calm Calm - N/A   Clear
3:53 AM 48.0 °F 43.0 °F 83% 30.32 in 10.0 mi Calm Calm - N/A   Clear
4:53 AM 48.0 °F 44.1 °F 86% 30.32 in 10.0 mi North 5.8 mph - N/A   Clear
5:53 AM 48.0 °F 44.1 °F 86% 30.32 in 10.0 mi North 4.6 mph - N/A   Clear
6:53 AM 51.1 °F 45.0 °F 80% 30.33 in 10.0 mi NNE 3.5 mph - N/A   Clear
7:53 AM 55.0 °F 45.0 °F 69% 30.32 in 10.0 mi Calm Calm - N/A   Clear
8:53 AM 57.9 °F 44.1 °F 60% 30.32 in 10.0 mi Calm Calm - N/A   Clear
9:53 AM 61.0 °F 46.9 °F 60% 30.31 in 10.0 mi Calm Calm - N/A   Clear
10:53 AM 63.0 °F 46.9 °F 56% 30.30 in 10.0 mi Variable 3.5 mph - N/A   Clear
11:53 AM 66.9 °F 48.9 °F 52% 30.29 in 10.0 mi SE 4.6 mph - N/A   Scattered Clouds
12:53 PM 70.0 °F 51.1 °F 51% 30.28 in 10.0 mi Variable 4.6 mph - N/A   Scattered Clouds
1:53 PM 71.1 °F 48.9 °F 45% 30.26 in 10.0 mi Calm Calm - N/A   Clear
2:53 PM 72.0 °F 51.1 °F 48% 30.25 in 10.0 mi SW 3.5 mph - N/A   Mostly Cloudy
3:53 PM 71.1 °F 51.1 °F 49% 30.25 in 10.0 mi South 4.6 mph - N/A   Mostly Cloudy
4:53 PM 73.0 °F 51.1 °F 46% 30.24 in 10.0 mi Variable 3.5 mph - N/A   Mostly Cloudy
5:53 PM 73.0 °F 51.1 °F 46% 30.23 in 10.0 mi SSW 4.6 mph - N/A   Mostly Cloudy
6:53 PM 73.9 °F 51.1 °F 45% 30.22 in 10.0 mi WSW 5.8 mph - N/A   Mostly Cloudy
7:53 PM 73.0 °F 51.1 °F 46% 30.22 in 10.0 mi SW 3.5 mph - N/A   Mostly Cloudy
8:53 PM 72.0 °F 50.0 °F 46% 30.22 in 10.0 mi SW 5.8 mph - N/A   Mostly Cloudy
9:53 PM 69.1 °F 48.0 °F 47% 30.22 in 10.0 mi South 4.6 mph - N/A   Clear
10:53 PM 62.1 °F 46.0 °F 56% 30.23 in 10.0 mi SSE 4.6 mph - N/A   Clear
11:53 PM 60.1 °F 45.0 °F 57% 30.24 in 10.0 mi Calm Calm - N/A   Clear